Flag for U.S.A. Weather past 2 weeks in Bellingham, Washington, U.S.A.

Now
60 °F

Overcast.


Feels Like: 60 °F
Forecast: 57 / 70 °F
Wind: 9 mph from South

Location: Bellingham International Airport

Current Time: Aug 20, 2014 at 8:10:18 AM

Latest Report: Aug 20, 2014 at 6:53 AM


Visibility: 10 mi

Pressure: 29.91 "Hg

Humidity: 78%

Dew point: 53 °F

Location of BellinghamLocation

Historic Weather in Bellingham — Graph

°F

Bellingham temperature yesterday

Maximum temperature yesterday: 76 °F (at 2:53 PM)
Minimum temperature yesterday: 62 °F (at 11:53 PM)
Average temperature yesterday: 68 °F

Past Weeks' High & Low Weather Summary

 TemperatureHumidityPressure
High84 °F (Aug 11, 11:53 AM)94% (Aug 11, 5:55 AM)30.18 "Hg (Aug 11, 5:55 AM)
Low50 °F (Aug 9, 4:53 AM)38% (Aug 9, 6:53 PM)29.77 "Hg (Aug 19, 6:53 PM)
Average66 °F76%30.01 "Hg
* Reported Aug 5 6:53 AM — Aug 20 6:53 AM, Bellingham, Weather by CustomWeather, © 2014

Note: Actual official high and low records may vary slightly from our data, if they occured in-between our weather recording intervals... More about our weather records

Advertising

Bellingham weather history for previous 24 hours

 ConditionsComfort  
Time TempWeatherWind HumidityBarometerVisibility
6:53 AM
Aug 20
60 °FOvercast.9 mph78%29.91 "Hg10 mi
5:53 AM60 °FOvercast.12 mph75%29.88 "Hg10 mi
4:53 AM61 °FMostly cloudy.14 mph72%29.87 "Hg10 mi
3:53 AM61 °FMostly cloudy.12 mph67%29.86 "Hg10 mi
2:53 AM60 °FOvercast.13 mph75%29.84 "Hg10 mi
1:53 AM61 °FMostly cloudy.12 mph72%29.83 "Hg10 mi
12:53 AM61 °FClear.10 mph75%29.82 "Hg10 mi
11:53 PM
Aug 19
62 °FClear.9 mph73%29.80 "Hg10 mi
10:53 PM63 °FClear.12 mph73%29.79 "Hg10 mi
9:53 PM64 °FClear.10 mph73%29.79 "Hg10 mi
8:53 PM65 °FSunny.10 mph73%29.78 "Hg10 mi
7:53 PM66 °FSunny.8 mph70%29.78 "Hg10 mi
6:53 PM67 °FSunny.9 mph68%29.77 "Hg10 mi
5:53 PM73 °FPassing clouds.10 mph57%29.78 "Hg10 mi
4:53 PM73 °FPartly sunny.8 mph57%29.78 "Hg10 mi
3:53 PM76 °FPartly sunny.8 mph52%29.80 "Hg10 mi
2:53 PM76 °FSunny.6 mph54%29.81 "Hg10 mi
1:53 PM75 °FPassing clouds.6 mph55%29.83 "Hg10 mi
12:53 PM75 °FPassing clouds.6 mph58%29.83 "Hg10 mi
11:53 AM75 °FPassing clouds.3 mph58%29.84 "Hg10 mi
10:53 AM74 °FScattered clouds.3 mph60%29.84 "Hg10 mi
9:53 AM72 °FSunny.5 mph68%29.84 "Hg10 mi
8:53 AM69 °FSunny.5 mph73%29.84 "Hg10 mi
Weather by CustomWeather, © 2014

See weather overviewHow to use our weather pages